Погода в Лекарственном

Россия / Новосибирская область     55°00′06″N   83°38′54″E
темп.,
°C
ветер,
м/с
пор.,
м/с
влажн.,
%
обл.,
%
осадки,
мм/ч
давл.,
гПа
погр.,
м
22 апреля, чт
чт2201:00−4св228760 0.0 102930
04:00−4ссв368387 0.0 1031153
07:00−4ссв39836 0.0 1035339
10:000ссв686390 0.0 10371284
13:00+2св7950100 0.2 10381831
16:00+2ссв7849100 0.3 10391627
19:00+2св685366 0.4 1041969
22:00−2с34745 0.0 104464
23 апреля, пт
пт2301:00−2ссв310875 0.0 1044306
04:00−3с38935 0.0 1044258
07:00−2с38935 0.0 1045301
10:00+2св686359 0.0 10451187
13:00+4св79445 0.0 10431640
16:00+5св794371 0.0 10421994
19:00+4всв585342 0.0 1041651
22:00+1св35745 0.0 104270
24 апреля, сб
сб2401:000ссв39835 0.0 1041210
04:00−1с37915 0.0 1039182
07:00−1с398798 0.0 1038321
10:00+3ссв6864100 0.0 10361123
13:00+6ссв5648100 0.0 10341729
16:00+6ссв5644100 0.0 10331889
19:00+5ссв4553100 0.0 1033552
22:00+2с226974 0.0 103430
25 апреля, вс
вс2501:00+1ссв117881 0.0 103310
04:000зсз11805 0.0 103310
07:00+1зсз11785 0.0 103312
10:00+5сз11605 0.0 1033672
13:00+7зсз125176 0.0 10321409
16:00+9юз124689 0.0 10311601
19:00+9ююз224987 0.0 10301168
22:00+5ююз22675 0.0 103127
26 апреля, пн
пн2601:00+3ю227187 0.0 103022
04:00+2ю227280 0.0 103022
07:00+2ю227568 0.0 103042
10:00+6ю3460100 0.0 1030431
13:00+9ю4449100 0.0 10281203
16:00+10ю454873 0.0 10271393
19:00+10ююв465517 0.0 10251027
22:00+6ююв49725 0.0 1025166